PAA551 PANC-KDEN

Flight info

Callsign PAA551
Flight time N/A
Altitude 37000
Route TED JOH 59N140W 55N130W NOSOM GEG DLN TOFUU FLATI4
Aircraft B741/H-SDFHIRWXY/L

Departure

Time 2026-05-06 08:29
Airport Ted Stevens Anchorage International Airport (PANC)

Arrival

Time N/A
Airport Denver International Airport (KDEN)
Time Latitude Longitude Altitude Speed Heading
2026-05-06 08:13 61.17501 -149.98477 119 ft 0 kts 80°
2026-05-06 08:20 61.17501 -149.98483 119 ft 2 kts 81°
2026-05-06 08:20 61.17500 -149.98514 119 ft 2 kts 95°
2026-05-06 08:21 61.17503 -149.98544 119 ft 2 kts 106°
2026-05-06 08:21 61.17508 -149.98575 119 ft 2 kts 117°
2026-05-06 08:21 61.17516 -149.98601 119 ft 2 kts 128°
2026-05-06 08:21 61.17525 -149.98624 119 ft 2 kts 139°
2026-05-06 08:22 61.17537 -149.98642 119 ft 2 kts 150°
2026-05-06 08:22 61.17551 -149.98656 119 ft 2 kts 161°
2026-05-06 08:22 61.17556 -149.98662 119 ft 0 kts 151°
2026-05-06 08:22 61.17560 -149.98666 119 ft 1 kts 139°
2026-05-06 08:23 61.17562 -149.98669 119 ft 0 kts 134°
2026-05-06 08:24 61.17562 -149.98665 119 ft 0 kts 119°
2026-05-06 08:24 61.17530 -149.98627 119 ft 12 kts 165°
2026-05-06 08:24 61.17448 -149.98592 119 ft 10 kts 176°
2026-05-06 08:25 61.17372 -149.98625 119 ft 13 kts 210°
2026-05-06 08:25 61.17294 -149.98717 119 ft 12 kts 209°
2026-05-06 08:25 61.17209 -149.98743 119 ft 14 kts 170°
2026-05-06 08:25 61.17124 -149.98607 119 ft 18 kts 110°
2026-05-06 08:26 61.17116 -149.98314 119 ft 20 kts 90°
2026-05-06 08:26 61.17118 -149.98016 119 ft 20 kts 88°
2026-05-06 08:26 61.17121 -149.97723 119 ft 20 kts 89°
2026-05-06 08:26 61.17124 -149.97427 119 ft 20 kts 87°
2026-05-06 08:27 61.17130 -149.97141 119 ft 20 kts 90°
2026-05-06 08:27 61.17120 -149.96855 119 ft 17 kts 127°
2026-05-06 08:27 61.17016 -149.96791 119 ft 15 kts 181°
2026-05-06 08:27 61.16915 -149.96863 119 ft 18 kts 229°
2026-05-06 08:28 61.16853 -149.97131 119 ft 22 kts 249°
2026-05-06 08:28 61.16797 -149.97426 119 ft 21 kts 251°
2026-05-06 08:28 61.16787 -149.97731 119 ft 25 kts 271°
2026-05-06 08:28 61.16787 -149.98335 119 ft 69 kts 269°
2026-05-06 08:29 61.16779 -149.99815 119 ft 134 kts 267°
2026-05-06 08:29 61.16762 -150.02078 230 ft 173 kts 265°
2026-05-06 08:29 61.16811 -150.04540 754 ft 173 kts 266°
2026-05-06 08:29 61.16760 -150.07111 1047 ft 188 kts 260°
2026-05-06 08:30 61.16643 -150.09935 1380 ft 205 kts 253°
2026-05-06 08:30 61.15934 -150.12437 1637 ft 203 kts 212°
2026-05-06 08:30 61.14628 -150.13348 1879 ft 207 kts 172°
2026-05-06 08:30 61.13267 -150.12224 2082 ft 224 kts 138°
2026-05-06 08:31 61.12446 -150.09361 2302 ft 246 kts 104°
2026-05-06 08:31 61.12449 -150.05742 2909 ft 254 kts 87°
2026-05-06 08:31 61.12597 -150.02376 3601 ft 251 kts 95°
2026-05-06 08:31 61.12217 -149.98947 4182 ft 250 kts 118°
2026-05-06 08:32 61.11379 -149.95845 4892 ft 249 kts 120°
2026-05-06 08:32 61.10706 -149.92575 5594 ft 251 kts 110°
2026-05-06 08:32 61.10126 -149.89214 6307 ft 253 kts 110°
2026-05-06 08:32 61.09525 -149.85759 6999 ft 256 kts 109°
2026-05-06 08:33 61.08928 -149.82321 7686 ft 259 kts 109°
2026-05-06 08:33 61.08320 -149.78809 8375 ft 262 kts 109°
2026-05-06 08:33 61.07710 -149.75288 9057 ft 264 kts 109°
2026-05-06 08:33 61.07087 -149.71692 9799 ft 266 kts 110°
2026-05-06 08:34 61.06467 -149.68120 10369 ft 275 kts 110°
2026-05-06 08:34 61.05057 -149.60043 10717 ft 322 kts 111°
2026-05-06 08:34 61.04269 -149.55541 10890 ft 343 kts 111°
2026-05-06 08:35 61.03438 -149.50794 11061 ft 363 kts 111°
2026-05-06 08:35 61.02576 -149.45882 11781 ft 364 kts 111°
2026-05-06 08:35 61.01719 -149.41003 12487 ft 367 kts 111°
2026-05-06 08:35 61.00849 -149.36066 13182 ft 370 kts 111°
2026-05-06 08:36 60.99948 -149.31039 13872 ft 372 kts 113°
2026-05-06 08:36 60.99060 -149.26201 14505 ft 375 kts 113°
2026-05-06 08:36 60.98141 -149.21173 15146 ft 379 kts 113°
2026-05-06 08:36 60.97255 -149.16277 15740 ft 382 kts 114°
2026-05-06 08:37 60.96327 -149.11130 16336 ft 385 kts 114°
2026-05-06 08:37 60.95396 -149.05954 16926 ft 389 kts 114°
2026-05-06 08:37 60.94454 -149.00723 17505 ft 392 kts 114°
2026-05-06 08:37 60.93495 -148.95410 18063 ft 397 kts 114°
2026-05-06 08:38 60.92542 -148.90137 18611 ft 401 kts 115°
2026-05-06 08:38 60.91560 -148.84723 19185 ft 405 kts 115°
2026-05-06 08:38 60.90567 -148.79260 19730 ft 410 kts 115°
2026-05-06 08:38 60.89572 -148.73801 20296 ft 414 kts 116°
2026-05-06 08:39 60.88559 -148.68248 20889 ft 418 kts 116°
2026-05-06 08:39 60.87528 -148.62607 21456 ft 423 kts 116°
2026-05-06 08:39 60.86501 -148.57014 22023 ft 428 kts 116°
2026-05-06 08:39 60.85450 -148.51303 22593 ft 433 kts 117°
2026-05-06 08:40 60.84403 -148.45636 23125 ft 438 kts 117°
2026-05-06 08:40 60.83383 -148.40129 23650 ft 443 kts 117°
2026-05-06 08:40 60.82690 -148.36398 23965 ft 446 kts 117°
2026-05-06 08:40 60.81579 -148.30492 24542 ft 450 kts 119°
2026-05-06 08:41 60.80418 -148.24471 25010 ft 456 kts 119°
2026-05-06 08:41 60.79249 -148.18416 25495 ft 461 kts 119°
2026-05-06 08:41 60.78077 -148.12311 26006 ft 466 kts 119°
2026-05-06 08:41 60.76953 -148.06427 26454 ft 472 kts 120°
2026-05-06 08:42 60.75817 -148.00459 26899 ft 478 kts 120°
2026-05-06 08:42 60.74624 -147.94189 27377 ft 483 kts 120°
2026-05-06 08:42 60.73400 -147.87762 27797 ft 489 kts 120°
2026-05-06 08:42 60.72169 -147.81316 28240 ft 493 kts 120°
2026-05-06 08:43 60.70923 -147.74805 28628 ft 499 kts 120°
2026-05-06 08:43 60.69653 -147.68188 29057 ft 503 kts 120°
2026-05-06 08:43 60.68374 -147.61549 29415 ft 508 kts 120°
2026-05-06 08:43 60.67076 -147.54840 29773 ft 512 kts 120°
2026-05-06 08:44 60.65765 -147.48068 30304 ft 512 kts 120°
2026-05-06 08:44 60.64470 -147.41406 30688 ft 514 kts 120°
2026-05-06 08:44 60.63141 -147.34601 31012 ft 517 kts 121°
2026-05-06 08:44 60.61832 -147.28027 31421 ft 515 kts 122°
2026-05-06 08:45 60.60457 -147.21245 31676 ft 518 kts 122°
2026-05-06 08:45 60.59092 -147.14506 31984 ft 520 kts 122°
2026-05-06 08:45 60.57705 -147.07623 32223 ft 522 kts 122°
2026-05-06 08:45 60.56334 -147.00797 32368 ft 527 kts 121°
2026-05-06 08:46 60.54962 -146.93945 32553 ft 531 kts 121°
2026-05-06 08:46 60.53573 -146.87018 32656 ft 536 kts 121°
2026-05-06 08:46 60.52173 -146.80032 32970 ft 536 kts 121°
2026-05-06 08:46 60.50755 -146.72984 33188 ft 538 kts 121°
2026-05-06 08:47 60.49366 -146.66078 33435 ft 540 kts 121°
2026-05-06 08:47 60.48019 -146.59264 33725 ft 541 kts 120°
2026-05-06 08:47 60.46630 -146.52121 33882 ft 545 kts 120°
2026-05-06 08:47 60.45261 -146.44972 34153 ft 546 kts 120°
2026-05-06 08:48 60.43885 -146.37761 34429 ft 546 kts 119°
2026-05-06 08:48 60.42521 -146.30627 34906 ft 541 kts 121°
2026-05-06 08:48 60.41145 -146.23621 35106 ft 542 kts 121°
2026-05-06 08:48 60.39752 -146.16599 35344 ft 542 kts 121°
2026-05-06 08:49 60.38346 -146.09485 35640 ft 541 kts 121°
2026-05-06 08:49 60.36974 -146.02504 35916 ft 540 kts 121°
2026-05-06 08:49 60.35576 -145.95381 36031 ft 542 kts 121°
2026-05-06 08:49 60.34206 -145.88397 36291 ft 540 kts 120°
2026-05-06 08:50 60.32836 -145.81403 36657 ft 536 kts 121°
2026-05-06 08:50 60.31466 -145.74432 36900 ft 535 kts 121°
2026-05-06 08:50 60.30087 -145.67464 36966 ft 537 kts 121°
2026-05-06 08:51 60.27298 -145.53474 36981 ft 545 kts 120°
2026-05-06 08:51 60.24458 -145.39298 36980 ft 545 kts 120°
2026-05-06 08:52 60.21614 -145.25320 36978 ft 537 kts 122°
2026-05-06 08:52 60.18750 -145.11585 36978 ft 539 kts 122°
2026-05-06 08:53 60.15861 -144.97633 36979 ft 544 kts 121°
2026-05-06 08:53 60.12957 -144.83545 36981 ft 549 kts 121°
2026-05-06 08:54 60.10017 -144.69348 36981 ft 554 kts 121°
2026-05-06 08:54 60.07050 -144.55125 36981 ft 558 kts 121°
2026-05-06 08:55 60.04035 -144.40775 36980 ft 559 kts 121°
2026-05-06 08:55 60.01006 -144.26567 36978 ft 554 kts 122°
2026-05-06 08:56 59.97953 -144.12611 36979 ft 554 kts 122°
2026-05-06 08:56 59.94875 -143.98442 36980 ft 557 kts 122°
2026-05-06 08:57 59.91808 -143.84261 36980 ft 558 kts 122°
2026-05-06 08:57 59.88747 -143.70161 36980 ft 556 kts 122°
2026-05-06 08:58 59.85680 -143.56136 36979 ft 556 kts 122°
2026-05-06 08:58 59.82581 -143.42085 36980 ft 557 kts 122°
2026-05-06 08:59 59.79436 -143.28001 36978 ft 554 kts 123°
2026-05-06 08:59 59.76269 -143.14182 36980 ft 553 kts 123°
2026-05-06 09:00 59.73088 -143.00220 36980 ft 556 kts 123°
2026-05-06 09:00 59.69926 -142.86289 36979 ft 559 kts 122°
2026-05-06 09:01 59.66721 -142.72217 36992 ft 562 kts 122°
2026-05-06 09:01 59.63506 -142.58183 37045 ft 561 kts 122°
2026-05-06 09:02 59.60297 -142.44273 37078 ft 560 kts 122°
2026-05-06 09:02 59.57040 -142.30307 37079 ft 560 kts 123°
2026-05-06 09:03 59.53746 -142.16571 37079 ft 558 kts 123°
2026-05-06 09:03 59.50451 -142.02777 37080 ft 559 kts 123°
2026-05-06 09:04 59.47143 -141.88850 37079 ft 560 kts 123°
2026-05-06 09:04 59.43865 -141.75087 37079 ft 559 kts 123°
2026-05-06 09:05 59.40557 -141.61296 37080 ft 559 kts 123°
2026-05-06 09:05 59.37220 -141.47484 37080 ft 559 kts 123°
2026-05-06 09:06 59.33878 -141.33743 37079 ft 559 kts 124°
2026-05-06 09:06 59.30492 -141.20184 37079 ft 557 kts 124°
2026-05-06 09:07 59.27081 -141.06570 37080 ft 558 kts 124°
2026-05-06 09:07 59.23706 -140.93012 37080 ft 560 kts 123°
2026-05-06 09:08 59.20304 -140.79350 37080 ft 560 kts 123°
2026-05-06 09:08 59.16906 -140.65779 37080 ft 559 kts 123°
2026-05-06 09:09 59.13479 -140.52194 37080 ft 560 kts 123°
2026-05-06 09:09 59.10046 -140.38678 37080 ft 560 kts 123°
2026-05-06 09:10 59.06554 -140.25160 37078 ft 557 kts 125°
2026-05-06 09:10 59.03033 -140.11758 37080 ft 558 kts 124°
2026-05-06 09:11 58.99420 -139.98612 37080 ft 555 kts 127°
2026-05-06 09:11 58.95468 -139.85823 37080 ft 551 kts 129°
2026-05-06 09:12 58.91396 -139.73296 37080 ft 549 kts 129°
2026-05-06 09:12 58.87331 -139.60892 37079 ft 550 kts 128°
2026-05-06 09:13 58.83252 -139.48430 37079 ft 550 kts 128°
2026-05-06 09:13 58.79196 -139.36070 37078 ft 545 kts 128°
2026-05-06 09:14 58.75088 -139.23811 37079 ft 544 kts 130°
2026-05-06 09:14 58.70961 -139.11614 37078 ft 549 kts 129°
2026-05-06 09:15 58.66798 -138.99219 37079 ft 555 kts 129°
2026-05-06 09:15 58.62620 -138.86769 37080 ft 560 kts 128°
2026-05-06 09:16 58.58391 -138.74219 37081 ft 563 kts 129°
2026-05-06 09:16 58.54176 -138.61768 37078 ft 558 kts 129°
2026-05-06 09:17 58.49940 -138.49348 37081 ft 560 kts 128°
2026-05-06 09:17 58.45679 -138.36926 37081 ft 562 kts 129°
2026-05-06 09:18 58.41381 -138.24599 37078 ft 557 kts 130°
2026-05-06 09:18 58.37062 -138.12350 37081 ft 558 kts 130°
2026-05-06 09:19 58.32744 -138.00024 37081 ft 561 kts 130°
2026-05-06 09:19 58.28441 -137.87726 37100 ft 560 kts 129°
2026-05-06 09:20 58.24148 -137.75503 37135 ft 558 kts 130°
2026-05-06 09:20 58.19819 -137.63266 37150 ft 560 kts 129°
2026-05-06 09:21 58.15485 -137.51074 37149 ft 561 kts 130°
2026-05-06 09:21 58.11140 -137.38908 37149 ft 557 kts 130°
2026-05-06 09:22 58.06846 -137.27051 37150 ft 558 kts 131°
2026-05-06 09:22 58.02420 -137.15028 37150 ft 558 kts 131°
2026-05-06 09:23 57.98049 -137.03064 37150 ft 557 kts 131°
2026-05-06 09:23 57.93671 -136.91063 37149 ft 559 kts 130°
2026-05-06 09:24 57.89226 -136.78934 37149 ft 565 kts 129°
2026-05-06 09:24 57.84760 -136.66794 37150 ft 567 kts 129°
2026-05-06 09:25 57.80293 -136.54704 37149 ft 564 kts 129°
2026-05-06 09:25 57.75814 -136.42662 37149 ft 564 kts 129°
2026-05-06 09:26 57.71312 -136.30661 37148 ft 564 kts 131°
2026-05-06 09:26 57.66778 -136.18829 37153 ft 564 kts 131°
2026-05-06 09:27 57.62230 -136.06915 37159 ft 565 kts 130°
2026-05-06 09:27 57.57727 -135.95059 37161 ft 562 kts 130°
2026-05-06 09:28 57.53228 -135.83256 37169 ft 563 kts 130°
2026-05-06 09:28 57.48681 -135.71393 37178 ft 565 kts 130°
2026-05-06 09:29 57.44150 -135.59628 37186 ft 564 kts 130°
2026-05-06 09:29 57.39570 -135.47798 37188 ft 563 kts 130°
2026-05-06 09:30 57.35022 -135.36105 37189 ft 564 kts 130°
2026-05-06 09:30 57.30388 -135.24409 37189 ft 562 kts 132°
2026-05-06 09:31 57.25755 -135.12804 37189 ft 562 kts 131°
2026-05-06 09:31 57.21129 -135.01141 37188 ft 565 kts 131°
2026-05-06 09:32 57.16495 -134.89465 37188 ft 571 kts 130°
2026-05-06 09:32 57.11801 -134.77678 37187 ft 575 kts 130°
2026-05-06 09:33 57.07076 -134.65863 37182 ft 567 kts 130°
2026-05-06 09:33 57.02462 -134.54384 37182 ft 556 kts 130°
2026-05-06 09:34 56.97913 -134.43144 37192 ft 554 kts 130°
2026-05-06 09:34 56.93327 -134.31879 37196 ft 548 kts 131°
2026-05-06 09:35 56.88722 -134.20813 37200 ft 547 kts 131°
2026-05-06 09:35 56.84150 -134.09793 37201 ft 551 kts 131°
2026-05-06 09:36 56.79539 -133.98619 37199 ft 550 kts 131°
2026-05-06 09:36 56.74965 -133.87553 37199 ft 549 kts 131°
2026-05-06 09:37 56.70379 -133.76520 37199 ft 550 kts 131°
2026-05-06 09:37 56.65775 -133.65498 37199 ft 550 kts 131°
2026-05-06 09:38 56.61162 -133.54506 37192 ft 549 kts 131°
2026-05-06 09:38 56.56527 -133.43510 37183 ft 549 kts 131°
2026-05-06 09:39 56.51900 -133.32596 37178 ft 550 kts 132°
2026-05-06 09:39 56.47196 -133.21735 37180 ft 548 kts 133°
2026-05-06 09:40 56.42508 -133.10899 37180 ft 550 kts 131°
2026-05-06 09:40 56.35410 -132.94420 37181 ft 559 kts 130°
2026-05-06 09:41 56.30645 -132.83375 37181 ft 565 kts 130°
2026-05-06 09:41 56.25843 -132.72301 37181 ft 561 kts 130°
2026-05-06 09:42 56.21031 -132.61266 37181 ft 559 kts 130°
2026-05-06 09:42 56.16231 -132.50313 37181 ft 563 kts 130°
2026-05-06 09:43 56.11417 -132.39377 37178 ft 562 kts 130°
2026-05-06 09:43 56.06576 -132.28496 37179 ft 560 kts 132°
2026-05-06 09:44 56.01672 -132.17654 37178 ft 561 kts 132°
2026-05-06 09:44 55.96816 -132.06848 37180 ft 561 kts 131°
2026-05-06 09:45 55.91961 -131.96017 37179 ft 561 kts 131°
2026-05-06 09:45 55.87112 -131.85231 37178 ft 561 kts 131°
2026-05-06 09:46 55.82240 -131.74446 37180 ft 562 kts 131°
2026-05-06 09:46 55.77319 -131.63605 37179 ft 562 kts 131°
2026-05-06 09:47 55.72452 -131.52936 37178 ft 560 kts 131°
2026-05-06 09:47 55.67547 -131.42232 37180 ft 560 kts 131°
2026-05-06 09:48 55.62604 -131.31517 37180 ft 562 kts 133°
2026-05-06 09:48 55.57635 -131.20956 37181 ft 559 kts 133°
2026-05-06 09:49 55.52700 -131.10440 37188 ft 560 kts 132°
2026-05-06 09:49 55.47722 -130.99783 37197 ft 562 kts 132°
2026-05-06 09:50 55.42759 -130.89185 37199 ft 565 kts 131°
2026-05-06 09:50 55.37761 -130.78557 37201 ft 570 kts 130°
2026-05-06 09:51 55.32697 -130.67833 37199 ft 572 kts 130°
2026-05-06 09:51 55.27644 -130.57179 37190 ft 568 kts 130°
2026-05-06 09:52 55.22573 -130.46535 37177 ft 569 kts 130°
2026-05-06 09:52 55.17514 -130.35968 37170 ft 570 kts 130°
2026-05-06 09:53 55.12402 -130.25468 37169 ft 567 kts 132°
2026-05-06 09:53 55.07315 -130.15096 37170 ft 569 kts 132°
2026-05-06 09:54 55.02184 -130.04567 37171 ft 569 kts 132°
2026-05-06 09:54 54.97126 -129.94240 37169 ft 560 kts 131°
2026-05-06 09:55 54.92123 -129.84105 37169 ft 549 kts 131°
2026-05-06 09:55 54.87184 -129.74159 37169 ft 544 kts 131°
2026-05-06 09:56 54.82254 -129.64272 37170 ft 543 kts 131°
2026-05-06 09:56 54.77285 -129.54352 37159 ft 546 kts 131°
2026-05-06 09:57 54.72353 -129.44542 37107 ft 545 kts 131°
2026-05-06 09:57 54.68198 -129.36310 37063 ft 543 kts 131°
2026-05-06 09:58 54.62416 -129.25046 37041 ft 545 kts 133°
2026-05-06 09:58 54.57386 -129.15297 37040 ft 545 kts 132°
2026-05-06 09:59 54.52382 -129.05537 37039 ft 544 kts 132°
2026-05-06 09:59 54.47389 -128.95799 37040 ft 548 kts 132°
2026-05-06 10:00 54.42351 -128.86014 37040 ft 553 kts 132°
2026-05-06 10:00 54.37261 -128.76170 37039 ft 551 kts 132°
2026-05-06 10:01 54.32182 -128.66391 37038 ft 549 kts 133°
2026-05-06 10:01 54.27131 -128.56706 37040 ft 551 kts 133°
2026-05-06 10:02 54.22040 -128.46982 37040 ft 551 kts 132°
2026-05-06 10:02 54.16960 -128.37317 37040 ft 550 kts 132°
2026-05-06 10:03 54.11821 -128.27669 37040 ft 549 kts 134°
2026-05-06 10:03 54.07553 -128.19751 37040 ft 550 kts 134°
2026-05-06 10:04 54.01542 -128.08521 37039 ft 550 kts 133°
2026-05-06 10:04 53.96435 -127.98955 37040 ft 550 kts 133°
2026-05-06 10:05 53.91299 -127.89366 37038 ft 550 kts 133°
2026-05-06 10:05 53.86182 -127.79855 37014 ft 550 kts 133°
2026-05-06 10:06 53.81041 -127.70338 37008 ft 550 kts 133°
2026-05-06 10:06 53.75887 -127.60838 37014 ft 550 kts 133°
2026-05-06 10:07 53.70734 -127.51379 36986 ft 550 kts 133°
2026-05-06 10:07 53.65548 -127.41893 36948 ft 550 kts 133°
2026-05-06 10:08 53.60408 -127.32541 36939 ft 550 kts 135°
2026-05-06 10:08 53.55188 -127.23231 36939 ft 550 kts 135°
2026-05-06 10:09 53.49929 -127.13826 36939 ft 551 kts 134°
2026-05-06 10:09 53.44738 -127.04495 36940 ft 553 kts 135°
2026-05-06 10:10 53.39475 -126.95047 36940 ft 557 kts 135°
2026-05-06 10:10 53.34192 -126.85602 36939 ft 556 kts 135°
2026-05-06 10:11 53.28922 -126.76221 36939 ft 555 kts 135°
2026-05-06 10:11 53.23636 -126.66849 36940 ft 556 kts 135°
2026-05-06 10:12 53.18359 -126.57529 36940 ft 556 kts 135°
2026-05-06 10:12 53.13057 -126.48202 36940 ft 555 kts 135°
2026-05-06 10:13 53.07742 -126.38889 36941 ft 554 kts 134°
2026-05-06 10:13 53.02483 -126.29761 36938 ft 546 kts 135°
2026-05-06 10:14 52.97237 -126.20796 36940 ft 540 kts 135°
2026-05-06 10:14 52.92052 -126.11874 36939 ft 539 kts 135°
2026-05-06 10:15 52.86898 -126.02979 36939 ft 540 kts 134°
2026-05-06 10:15 52.81707 -125.94038 36940 ft 540 kts 134°
2026-05-06 10:16 52.76505 -125.85116 36961 ft 539 kts 134°
2026-05-06 10:16 52.71303 -125.76233 37028 ft 539 kts 134°
2026-05-06 10:17 52.66109 -125.67395 37100 ft 540 kts 134°
2026-05-06 10:17 52.60876 -125.58526 37155 ft 540 kts 134°
2026-05-06 10:18 52.55692 -125.49772 37157 ft 540 kts 134°
2026-05-06 10:18 52.50448 -125.40945 37140 ft 539 kts 134°
2026-05-06 10:19 52.45218 -125.32192 37152 ft 540 kts 136°
2026-05-06 10:19 52.39913 -125.23485 37118 ft 541 kts 136°
2026-05-06 10:20 52.34659 -125.14827 37070 ft 539 kts 135°
2026-05-06 10:20 52.29382 -125.06087 37068 ft 539 kts 135°
2026-05-06 10:21 52.24147 -124.97430 37050 ft 542 kts 135°
2026-05-06 10:21 52.18838 -124.88685 36997 ft 544 kts 135°
2026-05-06 10:22 52.13527 -124.79971 36949 ft 545 kts 135°
2026-05-06 10:22 52.08199 -124.71259 36960 ft 545 kts 135°
2026-05-06 10:23 52.02854 -124.62549 36962 ft 546 kts 135°
2026-05-06 10:23 51.97482 -124.53828 36936 ft 545 kts 135°
2026-05-06 10:24 51.92149 -124.45203 36956 ft 545 kts 135°
2026-05-06 10:24 51.86811 -124.36598 36953 ft 546 kts 135°
2026-05-06 10:25 51.81477 -124.28115 36930 ft 545 kts 136°
2026-05-06 10:25 51.76064 -124.19584 36952 ft 545 kts 136°
2026-05-06 10:26 51.70645 -124.10988 36947 ft 546 kts 135°
2026-05-06 10:26 51.65286 -124.02470 36931 ft 545 kts 135°
2026-05-06 10:27 51.59901 -123.93938 36962 ft 545 kts 135°
2026-05-06 10:27 51.54523 -123.85450 36964 ft 546 kts 135°
2026-05-06 10:28 51.49111 -123.76940 36956 ft 545 kts 135°
2026-05-06 10:28 51.43708 -123.68477 36971 ft 545 kts 135°
2026-05-06 10:29 51.38300 -123.60033 36961 ft 546 kts 135°
2026-05-06 10:29 51.32881 -123.51601 36950 ft 545 kts 135°
2026-05-06 10:30 51.27448 -123.43177 36950 ft 545 kts 135°
2026-05-06 10:30 51.22049 -123.34835 36950 ft 545 kts 136°
2026-05-06 10:31 51.16595 -123.26555 36949 ft 545 kts 137°
2026-05-06 10:31 51.11101 -123.18237 36950 ft 545 kts 136°
2026-05-06 10:32 51.05649 -123.09928 36949 ft 546 kts 136°
2026-05-06 10:32 51.00182 -123.01592 36950 ft 547 kts 136°
2026-05-06 10:33 50.94745 -122.93322 36949 ft 544 kts 137°
2026-05-06 10:33 50.89433 -122.85274 36949 ft 540 kts 139°
2026-05-06 10:34 50.84018 -122.77103 36957 ft 535 kts 139°
2026-05-06 10:34 50.78595 -122.68960 36968 ft 538 kts 139°
2026-05-06 10:35 50.73157 -122.60815 36952 ft 539 kts 139°
2026-05-06 10:35 50.67781 -122.52787 36964 ft 537 kts 139°
2026-05-06 10:36 50.62329 -122.44672 36999 ft 538 kts 139°
2026-05-06 10:36 50.56904 -122.36625 37030 ft 538 kts 139°
2026-05-06 10:37 50.51502 -122.28715 37048 ft 537 kts 140°
2026-05-06 10:37 50.46015 -122.20755 37050 ft 538 kts 140°
2026-05-06 10:38 50.40871 -122.13240 37050 ft 538 kts 140°
2026-05-06 10:38 50.35421 -122.05263 37050 ft 537 kts 140°
2026-05-06 10:39 50.29984 -121.97321 37049 ft 537 kts 140°
2026-05-06 10:39 50.24548 -121.89414 37050 ft 538 kts 140°
2026-05-06 10:40 50.19062 -121.81459 37049 ft 538 kts 140°
2026-05-06 10:40 50.13587 -121.73547 37050 ft 538 kts 140°
2026-05-06 10:41 50.08154 -121.65723 37050 ft 537 kts 140°
2026-05-06 10:41 50.02647 -121.57817 37050 ft 537 kts 140°
2026-05-06 10:42 49.97196 -121.50017 37050 ft 537 kts 140°
2026-05-06 10:42 49.91700 -121.42178 37050 ft 537 kts 140°
2026-05-06 10:43 49.86295 -121.34493 37049 ft 537 kts 141°
2026-05-06 10:44 49.78013 -121.22936 37050 ft 537 kts 141°
2026-05-06 10:44 49.72503 -121.15221 37050 ft 537 kts 141°
2026-05-06 10:45 49.66981 -121.07467 37050 ft 538 kts 140°
2026-05-06 10:45 49.61465 -120.99732 37049 ft 538 kts 140°
2026-05-06 10:46 49.55930 -120.91998 37050 ft 539 kts 140°
2026-05-06 10:46 49.50371 -120.84255 37049 ft 538 kts 140°
2026-05-06 10:47 49.44876 -120.76628 37050 ft 538 kts 140°
2026-05-06 10:47 49.39333 -120.68958 37045 ft 538 kts 140°
2026-05-06 10:48 49.33763 -120.61278 37009 ft 538 kts 140°
2026-05-06 10:48 49.28222 -120.53660 36968 ft 538 kts 140°
2026-05-06 10:49 49.22676 -120.46059 36928 ft 538 kts 140°
2026-05-06 10:49 49.17121 -120.38470 36920 ft 538 kts 140°
2026-05-06 10:50 49.11549 -120.30920 36919 ft 537 kts 141°
2026-05-06 10:50 49.05957 -120.23457 36919 ft 533 kts 141°
2026-05-06 10:51 49.00474 -120.16092 36919 ft 526 kts 141°
2026-05-06 10:51 48.95047 -120.08762 36919 ft 522 kts 139°
2026-05-06 10:52 48.89976 -120.00910 36920 ft 524 kts 133°
2026-05-06 10:52 48.85311 -119.92479 36920 ft 526 kts 130°
2026-05-06 10:53 48.80712 -119.83820 36919 ft 524 kts 130°
2026-05-06 10:53 48.76143 -119.75266 36920 ft 525 kts 130°
2026-05-06 10:54 48.71543 -119.66734 36920 ft 525 kts 130°
2026-05-06 10:54 48.66923 -119.58212 36919 ft 524 kts 130°
2026-05-06 10:55 48.62321 -119.49751 36920 ft 525 kts 130°
2026-05-06 10:55 48.57679 -119.41241 36919 ft 525 kts 130°
2026-05-06 10:56 48.53143 -119.32959 36919 ft 525 kts 131°
2026-05-06 10:56 48.48441 -119.24533 36919 ft 525 kts 131°
2026-05-06 10:57 48.43755 -119.16113 36919 ft 524 kts 131°
2026-05-06 10:57 48.39084 -119.07676 36920 ft 525 kts 131°
2026-05-06 10:58 48.34437 -118.99285 36919 ft 525 kts 131°
2026-05-06 10:58 48.29897 -118.91117 36920 ft 530 kts 130°
2026-05-06 10:59 48.25169 -118.82639 36920 ft 535 kts 130°
2026-05-06 10:59 48.20377 -118.74070 36920 ft 536 kts 130°
2026-05-06 11:00 48.15673 -118.65683 36920 ft 534 kts 130°
2026-05-06 11:00 48.10890 -118.57184 36930 ft 535 kts 130°
2026-05-06 11:01 48.06106 -118.48714 36954 ft 535 kts 130°
2026-05-06 11:01 48.01281 -118.40195 36973 ft 534 kts 130°
2026-05-06 11:02 47.96506 -118.31813 36979 ft 534 kts 131°
2026-05-06 11:02 47.91644 -118.23430 36979 ft 535 kts 131°
2026-05-06 11:03 47.86817 -118.15061 36979 ft 535 kts 131°
2026-05-06 11:03 47.82003 -118.06677 36980 ft 535 kts 131°
2026-05-06 11:04 47.77155 -117.98247 36980 ft 535 kts 131°
2026-05-06 11:04 47.72323 -117.89871 36980 ft 535 kts 131°
2026-05-06 11:05 47.67533 -117.81599 36980 ft 535 kts 131°
2026-05-06 11:05 47.62670 -117.73228 36979 ft 534 kts 131°
2026-05-06 11:06 47.57910 -117.64857 36979 ft 534 kts 128°
2026-05-06 11:06 47.53688 -117.55959 36981 ft 535 kts 122°
2026-05-06 11:07 47.49815 -117.46740 36987 ft 535 kts 121°
2026-05-06 11:07 47.45927 -117.37292 36995 ft 535 kts 121°
2026-05-06 11:08 47.42027 -117.28005 36999 ft 535 kts 122°
2026-05-06 11:08 47.38072 -117.18743 36999 ft 535 kts 122°
2026-05-06 11:09 47.34133 -117.09460 37001 ft 535 kts 122°
2026-05-06 11:09 47.30205 -117.00178 37012 ft 536 kts 122°
2026-05-06 11:10 47.26256 -116.90870 37021 ft 538 kts 122°
2026-05-06 11:10 47.22281 -116.81535 37026 ft 538 kts 122°
2026-05-06 11:11 47.18323 -116.72277 37026 ft 538 kts 122°
2026-05-06 11:11 47.14349 -116.63012 37022 ft 538 kts 122°
2026-05-06 11:12 47.10362 -116.53748 37025 ft 538 kts 122°
2026-05-06 11:12 47.06359 -116.44476 37027 ft 538 kts 122°
2026-05-06 11:13 47.02355 -116.35236 37030 ft 538 kts 122°
2026-05-06 11:13 46.98336 -116.26125 37027 ft 531 kts 123°
2026-05-06 11:14 46.94365 -116.17152 37029 ft 524 kts 122°
2026-05-06 11:14 46.90851 -116.09151 37035 ft 520 kts 121°
2026-05-06 11:15 46.87323 -116.01105 37038 ft 515 kts 121°
2026-05-06 11:15 46.83461 -115.92317 37040 ft 514 kts 121°
2026-05-06 11:16 46.79607 -115.83581 37041 ft 516 kts 121°
2026-05-06 11:16 46.75721 -115.74809 37040 ft 515 kts 121°
2026-05-06 11:17 46.71823 -115.66037 37040 ft 515 kts 121°
2026-05-06 11:17 46.67925 -115.57291 37040 ft 515 kts 121°
2026-05-06 11:18 46.64012 -115.48541 37039 ft 515 kts 121°
2026-05-06 11:18 46.60099 -115.39819 37041 ft 515 kts 121°
2026-05-06 11:19 46.56206 -115.31197 37043 ft 515 kts 122°
2026-05-06 11:19 46.52239 -115.22564 37040 ft 516 kts 122°
2026-05-06 11:20 46.48280 -115.13901 37052 ft 516 kts 122°
2026-05-06 11:20 46.44330 -115.05218 37091 ft 521 kts 122°
2026-05-06 11:21 46.40320 -114.96413 37131 ft 527 kts 121°
2026-05-06 11:21 46.36279 -114.87567 37148 ft 527 kts 121°
2026-05-06 11:22 46.32211 -114.78694 37149 ft 524 kts 121°
2026-05-06 11:22 46.28217 -114.70009 37150 ft 526 kts 121°
2026-05-06 11:23 46.24163 -114.61221 37151 ft 526 kts 121°
2026-05-06 11:23 46.20262 -114.52795 37150 ft 526 kts 121°
2026-05-06 11:24 46.16285 -114.44226 37149 ft 526 kts 121°
2026-05-06 11:24 46.12171 -114.35393 37150 ft 526 kts 121°
2026-05-06 11:25 46.08047 -114.26678 37150 ft 526 kts 123°
2026-05-06 11:25 46.03934 -114.18024 37149 ft 526 kts 122°
2026-05-06 11:26 45.99853 -114.09376 37148 ft 526 kts 122°
2026-05-06 11:26 45.95761 -114.00696 37150 ft 526 kts 122°
2026-05-06 11:27 45.91778 -113.92268 37150 ft 526 kts 122°
2026-05-06 11:27 45.87696 -113.83659 37148 ft 526 kts 122°
2026-05-06 11:28 45.83561 -113.74966 37150 ft 526 kts 122°
2026-05-06 11:28 45.79433 -113.66314 37162 ft 526 kts 122°
2026-05-06 11:29 45.75327 -113.57739 37180 ft 525 kts 122°
2026-05-06 11:29 45.71184 -113.49113 37193 ft 526 kts 122°
2026-05-06 11:30 45.67034 -113.40498 37191 ft 527 kts 122°
2026-05-06 11:30 45.62897 -113.31953 37184 ft 526 kts 123°
2026-05-06 11:31 45.58691 -113.23422 37181 ft 526 kts 123°
2026-05-06 11:31 45.54499 -113.14877 37180 ft 527 kts 123°
2026-05-06 11:32 45.50325 -113.06332 37180 ft 526 kts 123°
2026-05-06 11:32 45.46151 -112.97791 37179 ft 527 kts 123°
2026-05-06 11:33 45.41960 -112.89246 37180 ft 532 kts 123°
2026-05-06 11:33 45.37716 -112.80618 37179 ft 534 kts 122°
2026-05-06 11:34 45.33465 -112.72004 37180 ft 535 kts 122°
2026-05-06 11:34 45.29208 -112.63403 37179 ft 534 kts 122°
2026-05-06 11:35 45.24806 -112.54942 37180 ft 536 kts 126°
2026-05-06 11:35 45.19946 -112.46906 37180 ft 537 kts 130°
2026-05-06 11:36 45.14904 -112.39114 37180 ft 537 kts 130°
2026-05-06 11:36 45.09850 -112.31405 37180 ft 537 kts 131°
2026-05-06 11:37 45.04960 -112.24018 37189 ft 532 kts 131°
2026-05-06 11:37 44.99972 -112.16419 37205 ft 528 kts 131°
2026-05-06 11:38 44.95016 -112.08831 37221 ft 525 kts 131°
2026-05-06 11:38 44.90074 -112.01273 37229 ft 525 kts 131°
2026-05-06 11:39 44.85141 -111.93748 37230 ft 526 kts 131°
2026-05-06 11:39 44.80200 -111.86237 37229 ft 526 kts 131°
2026-05-06 11:40 44.75215 -111.78682 37228 ft 525 kts 131°
2026-05-06 11:40 44.70243 -111.71166 37217 ft 526 kts 131°
2026-05-06 11:41 44.65282 -111.63689 37195 ft 526 kts 131°
2026-05-06 11:41 44.60292 -111.56188 37171 ft 526 kts 131°
2026-05-06 11:42 44.55316 -111.48728 37170 ft 526 kts 131°
2026-05-06 11:42 44.50323 -111.41264 37169 ft 526 kts 131°
2026-05-06 11:43 44.45348 -111.33846 37169 ft 526 kts 132°
2026-05-06 11:43 44.40310 -111.26463 37170 ft 526 kts 132°
2026-05-06 11:44 44.32765 -111.15373 37169 ft 526 kts 132°
2026-05-06 11:44 44.27756 -111.07978 37169 ft 526 kts 132°
2026-05-06 11:45 44.22755 -111.00607 37163 ft 530 kts 131°
2026-05-06 11:45 44.17679 -110.93145 37149 ft 532 kts 131°
2026-05-06 11:46 44.12577 -110.85669 37132 ft 533 kts 131°
2026-05-06 11:46 44.07502 -110.78250 37129 ft 533 kts 131°
2026-05-06 11:47 44.02528 -110.70998 37130 ft 533 kts 131°
2026-05-06 11:47 43.97430 -110.63586 37129 ft 533 kts 131°
2026-05-06 11:48 43.92307 -110.56158 37131 ft 533 kts 131°
2026-05-06 11:48 43.87215 -110.48795 37126 ft 533 kts 131°
2026-05-06 11:49 43.82091 -110.41404 37127 ft 533 kts 131°
2026-05-06 11:49 43.76970 -110.34023 37130 ft 533 kts 132°
2026-05-06 11:50 43.71782 -110.26690 37134 ft 534 kts 133°
2026-05-06 11:50 43.66638 -110.19412 37137 ft 534 kts 132°
2026-05-06 11:51 43.61474 -110.12060 37139 ft 534 kts 132°
2026-05-06 11:51 43.56338 -110.04746 37139 ft 533 kts 132°
2026-05-06 11:52 43.51167 -109.97402 37140 ft 533 kts 132°
2026-05-06 11:52 43.46018 -109.90110 37139 ft 533 kts 132°
2026-05-06 11:53 43.40866 -109.82834 37139 ft 534 kts 132°
2026-05-06 11:53 43.35703 -109.75561 37139 ft 533 kts 132°
2026-05-06 11:54 43.30521 -109.68282 37141 ft 534 kts 132°
2026-05-06 11:54 43.25347 -109.61030 37139 ft 534 kts 132°
2026-05-06 11:55 43.20167 -109.53790 37139 ft 533 kts 132°
2026-05-06 11:55 43.14987 -109.46568 37139 ft 534 kts 132°
2026-05-06 11:56 43.09793 -109.39346 37136 ft 534 kts 132°
2026-05-06 11:56 43.04600 -109.32161 37140 ft 533 kts 133°
2026-05-06 11:57 42.99369 -109.25037 37149 ft 533 kts 133°
2026-05-06 11:57 42.94177 -109.17932 37157 ft 530 kts 133°
2026-05-06 11:58 42.88995 -109.10809 37158 ft 529 kts 133°
2026-05-06 11:58 42.83863 -109.03753 37159 ft 528 kts 133°
2026-05-06 11:59 42.78682 -108.96651 37160 ft 530 kts 133°
2026-05-06 11:59 42.73476 -108.89539 37160 ft 530 kts 133°
2026-05-06 12:00 42.68302 -108.82491 37159 ft 529 kts 133°
2026-05-06 12:00 42.63100 -108.75421 37160 ft 529 kts 133°
2026-05-06 12:01 42.57929 -108.68411 37159 ft 529 kts 133°
2026-05-06 12:01 42.52723 -108.61369 37160 ft 529 kts 133°
2026-05-06 12:02 42.47528 -108.54361 37160 ft 529 kts 133°
2026-05-06 12:02 42.42297 -108.47323 37160 ft 529 kts 133°
2026-05-06 12:03 42.37102 -108.40350 37160 ft 530 kts 133°
2026-05-06 12:03 42.31884 -108.33367 37159 ft 530 kts 134°
2026-05-06 12:04 42.26645 -108.26473 37160 ft 530 kts 134°
2026-05-06 12:04 42.21366 -108.19507 37156 ft 530 kts 134°
2026-05-06 12:05 42.16130 -108.12560 37145 ft 530 kts 134°
2026-05-06 12:05 42.10906 -108.05630 37134 ft 530 kts 134°
2026-05-06 12:06 42.05658 -107.98686 37122 ft 530 kts 134°
2026-05-06 12:06 42.00435 -107.91795 37120 ft 530 kts 134°
2026-05-06 12:07 41.95192 -107.84893 37120 ft 530 kts 134°
2026-05-06 12:07 41.89932 -107.77987 37120 ft 530 kts 134°
2026-05-06 12:08 41.84684 -107.71104 37119 ft 529 kts 133°
2026-05-06 12:08 41.79589 -107.64040 37119 ft 529 kts 130°
2026-05-06 12:09 41.74665 -107.56776 37119 ft 528 kts 129°
2026-05-06 12:09 41.69795 -107.49479 37120 ft 529 kts 129°
2026-05-06 12:10 41.64925 -107.42206 37119 ft 529 kts 129°
2026-05-06 12:10 41.60033 -107.34937 37119 ft 528 kts 130°
2026-05-06 12:11 41.55117 -107.27743 37118 ft 529 kts 131°
2026-05-06 12:11 41.50164 -107.20514 37117 ft 529 kts 130°
2026-05-06 12:12 41.45228 -107.13261 37108 ft 529 kts 130°
2026-05-06 12:12 41.40310 -107.06024 37095 ft 529 kts 130°
2026-05-06 12:13 41.35384 -106.98784 37089 ft 530 kts 130°
2026-05-06 12:13 41.30428 -106.91522 37091 ft 536 kts 129°
2026-05-06 12:14 41.25439 -106.84237 37089 ft 538 kts 129°
2026-05-06 12:14 41.20402 -106.76886 37090 ft 541 kts 129°
2026-05-06 12:15 41.15352 -106.69537 37089 ft 541 kts 129°
2026-05-06 12:15 41.10335 -106.62255 37089 ft 540 kts 129°
2026-05-06 12:16 41.05312 -106.54982 37058 ft 532 kts 130°
2026-05-06 12:16 41.00348 -106.47815 37039 ft 521 kts 130°
2026-05-06 12:17 40.95495 -106.40823 37042 ft 515 kts 131°
2026-05-06 12:17 40.93057 -106.37317 36880 ft 518 kts 131°
2026-05-06 12:17 40.90615 -106.33812 36426 ft 524 kts 131°
2026-05-06 12:18 40.88284 -106.30505 35956 ft 525 kts 132°
2026-05-06 12:18 40.86203 -106.27373 35517 ft 521 kts 127°
2026-05-06 12:18 40.82371 -106.19315 34507 ft 509 kts 115°
2026-05-06 12:19 40.80827 -106.15175 34009 ft 504 kts 113°
2026-05-06 12:19 40.79365 -106.11005 33509 ft 500 kts 112°
2026-05-06 12:19 40.77922 -106.06812 33004 ft 497 kts 112°
2026-05-06 12:19 40.76499 -106.02695 32493 ft 494 kts 112°
2026-05-06 12:20 40.75074 -105.98611 31980 ft 490 kts 112°
2026-05-06 12:20 40.73646 -105.94563 31468 ft 487 kts 113°
2026-05-06 12:20 40.72226 -105.90567 30959 ft 484 kts 113°
2026-05-06 12:20 40.70789 -105.86540 30442 ft 482 kts 113°
2026-05-06 12:21 40.69368 -105.82566 29928 ft 479 kts 113°
2026-05-06 12:21 40.67970 -105.78668 29421 ft 476 kts 113°
2026-05-06 12:21 40.66554 -105.74722 28905 ft 473 kts 113°
2026-05-06 12:21 40.65155 -105.70833 28392 ft 470 kts 113°
2026-05-06 12:22 40.63750 -105.66933 27876 ft 468 kts 113°
2026-05-06 12:22 40.62367 -105.63097 27365 ft 465 kts 113°
2026-05-06 12:22 40.60990 -105.59284 26854 ft 463 kts 113°
2026-05-06 12:22 40.59617 -105.55486 26342 ft 460 kts 114°
2026-05-06 12:23 40.58251 -105.51711 25829 ft 456 kts 114°
2026-05-06 12:23 40.56891 -105.47961 25315 ft 452 kts 114°
2026-05-06 12:23 40.55549 -105.44270 24804 ft 448 kts 114°
2026-05-06 12:23 40.54219 -105.40616 24293 ft 443 kts 114°
2026-05-06 12:24 40.52898 -105.36990 23779 ft 437 kts 114°
2026-05-06 12:24 40.51586 -105.33401 23264 ft 431 kts 115°
2026-05-06 12:24 40.50382 -105.30160 22791 ft 426 kts 115°
2026-05-06 12:24 40.49036 -105.26549 22256 ft 419 kts 115°
2026-05-06 12:25 40.47783 -105.23163 21748 ft 413 kts 115°
2026-05-06 12:25 40.46401 -105.19872 21226 ft 407 kts 124°
2026-05-06 12:25 40.44603 -105.17095 20721 ft 401 kts 136°
2026-05-06 12:25 40.42501 -105.14738 20210 ft 396 kts 143°
2026-05-06 12:26 40.40293 -105.12634 19699 ft 392 kts 146°
2026-05-06 12:26 40.38067 -105.10624 19187 ft 389 kts 147°
2026-05-06 12:26 40.35863 -105.08637 18678 ft 387 kts 146°
2026-05-06 12:26 40.33650 -105.06616 18161 ft 384 kts 146°
2026-05-06 12:27 40.31515 -105.04645 17657 ft 382 kts 146°
2026-05-06 12:27 40.29332 -105.02623 17138 ft 379 kts 146°
2026-05-06 12:27 40.27216 -105.00661 16631 ft 377 kts 145°
2026-05-06 12:27 40.25070 -104.98673 16113 ft 374 kts 145°
2026-05-06 12:28 40.22960 -104.96721 15601 ft 372 kts 145°
2026-05-06 12:28 40.20857 -104.94778 15088 ft 369 kts 146°
2026-05-06 12:28 40.18738 -104.92987 14580 ft 366 kts 150°
2026-05-06 12:28 40.16524 -104.91450 14081 ft 363 kts 155°
2026-05-06 12:29 40.14217 -104.90073 13702 ft 361 kts 157°
2026-05-06 12:29 40.11914 -104.88784 13328 ft 360 kts 158°
2026-05-06 12:29 40.09621 -104.87515 13082 ft 356 kts 158°
2026-05-06 12:29 40.07383 -104.86268 13016 ft 355 kts 158°
2026-05-06 12:30 40.05164 -104.85020 12818 ft 348 kts 157°
2026-05-06 12:30 40.03027 -104.83805 12463 ft 335 kts 157°
2026-05-06 12:30 40.00951 -104.82619 12141 ft 322 kts 157°
2026-05-06 12:30 39.98945 -104.81484 12019 ft 317 kts 159°
2026-05-06 12:31 39.96828 -104.80703 11705 ft 312 kts 172°
2026-05-06 12:31 39.94737 -104.80460 11332 ft 299 kts 181°
2026-05-06 12:31 39.92715 -104.80429 11079 ft 284 kts 181°
2026-05-06 12:31 39.90818 -104.80375 11005 ft 267 kts 181°
2026-05-06 12:32 39.88981 -104.80318 10993 ft 264 kts 181°
2026-05-06 12:32 39.87166 -104.80262 10993 ft 265 kts 181°
2026-05-06 12:32 39.85332 -104.80207 10991 ft 264 kts 181°
2026-05-06 12:32 39.83490 -104.80153 10990 ft 264 kts 181°
2026-05-06 12:33 39.81643 -104.80099 10989 ft 264 kts 181°
2026-05-06 12:33 39.79837 -104.80046 10987 ft 264 kts 181°
2026-05-06 12:33 39.78005 -104.79993 10986 ft 264 kts 181°
2026-05-06 12:33 39.76158 -104.79828 10972 ft 265 kts 166°
2026-05-06 12:34 39.74506 -104.78843 10986 ft 267 kts 149°
2026-05-06 12:34 39.72900 -104.77635 10982 ft 266 kts 151°
2026-05-06 12:34 39.71251 -104.76543 10982 ft 266 kts 154°
2026-05-06 12:34 39.69571 -104.75539 10981 ft 267 kts 156°
2026-05-06 12:35 39.67869 -104.74563 10981 ft 267 kts 156°